YZ-1 R/B, 43003

Orbit data source: Space-Track

YZ-1 R/B, 43003 is space debris originally from a launch on Sun, 05 Nov 2017 UTC launched from the Xichang Space Center, China (XSC). Debris objects in space refer to the collection of defunct objects orbiting the Earth. Examples of debris include non-operational satellites, rocket bodies, and fragments generated from explosions, collisions, or faulty payload assembly.

Loading next visibility...
Identifier
43003, 2017-069C
Orbit
Active
Country
Flag of CNCN / PRC
Related business
Manufacturer
CALT
Mission
Spacecraft
Bus & Motor
YZ-1, Unknown motor
Mass
~2,075 kg wet, ~2,075 kg dry
Launch date (UTC)
2017-11-05 (9 years ago)
Launch vehicle
Unknown
Launch site
Xichang Space Center, China (XSC)
Object type
Payload
Rocket body
Debris
Shape & HBR
Double Cone, 2.0 m
Radar Cross Section
5.890 m², Large (>1 m²)

Expand to show TLE details & history
Last TLE update: 3 days ago

TLE from 3 days ago
0 YZ-1 R/B
1 43003U 17069C   26170.29989752 -.00000053  00000-0  00000-0 0  9999
2 43003  56.3274  70.8497 0037293  47.2451 313.0989  1.78953351 56344
Epoch: 2026-06-19T07:11Z
TLE epoch observation values (Epoch: 2026-06-19T07:11:51.145Z)
Latitude
-0.00005°
Longitude
55.37101°
Altitude
22,206.923 km
Speed
3.739 km/s
True Right ascension
04h 43m 27s
True Declination
0° 00' 00"
Sunlit
Object was in daylight at epoch
Visualization orbit readout
Latitude
Unknown
Longitude
Unknown
Altitude
Unknown
Speed
Unknown
Apparent Right ascension
Unknown
Apparent Declination
Unknown
Sunlit
N/A
Visualization observer readout
Local Sidereal Time
21:27:19
Azimuth
Unknown
Elevation
Unknown
Doppler factor
Unknown
Orbital elements
Apogee altitude
22,386.435 km
Perigee altitude
22,172.689 km
Semi-major axis
28,657.699 km
Eccentricity
0.00373
Inclination
56.3274°
RAAN
70.8497°
Arg. of periapsis
47.2451°
True anomaly
312.78587°
Mean anomaly
313.0989°
Eccentric anomaly
312.94248°
Mean motion
0.44738 °/min
Orbital period
804.68 mins
BSTAR
0
Loading maneuver chart data...
Computing Atmospheric mass density...
Loading historical data...
Loading historical data...
Loading historical data...
Loading historical data...
Loading historical data...
Loading historical data...
Loading historical data...
Other satellites on launch #69 in the year 2017 (2017-11-05 UTC)

Documentation

Showing up to 5 results
|